Regional Weather Roundup
Issued by NWS

Home | Current Version | Previous Version | Text Only | Print | Product List | Glossary On
Versions: 1 2 3 4 5 6 7 8 9 10 11 12 13 14 15 16 17 18 19 20 21 22 23 24 25 26 27
000
ASUS45 KBOI 181310
RWRID

IDAHO REGIONAL WEATHER ROUNDUP
NATIONAL WEATHER SERVICE BOISE ID
700 AM MDT WED OCT 18 2017

NOTE: "FAIR" INDICATES FEW OR NO CLOUDS BELOW 12000 FEET
WITH NO SIGNIFICANT WEATHER AND/OR OBSTRUCTIONS TO VISIBILITY

IDZ012-014-181400-
SOUTHWEST IDAHO


CITY           SKY/WX    TMP DP  RH WIND       PRES   REMARKS
BOISE          CLEAR     43  30  60 SE8       30.12R
CALDWELL       CLEAR     31  28  89 NE7       30.13R FOG     WCI  24
MOUNTAIN HOME  CLEAR     33  24  70 E6        30.14R WCI  27
$$

IDZ016-017-181400-
SOUTHCENTRAL IDAHO


CITY           SKY/WX    TMP DP  RH WIND       PRES   REMARKS
BURLEY         CLEAR     39  22  50 W5        30.15R
JEROME         CLEAR     47  23  38 CALM      30.16R
TWIN FALLS     CLEAR     44  22  41 S12       30.15R
$$

IDZ019>023-181400-
SOUTHEAST IDAHO


CITY           SKY/WX    TMP DP  RH WIND       PRES   REMARKS
IDAHO FALLS    CLOUDY    37  25  61 S5        30.15F WCI  33
POCATELLO      CLOUDY    35  28  75 E3        30.16F
REXBURG        CLOUDY    32  24  72 VRB3      30.15S
$$

IDZ006-010-011-018-031-032-181400-
CENTRAL IDAHO MOUNTAINS


CITY           SKY/WX    TMP DP  RH WIND       PRES   REMARKS
MCCALL         PTCLDY    28  24  85 CALM      30.11S
HAILEY         CLEAR     36  23  60 W9        30.20S WCI  29
STANLEY          N/A     24  20  84 CALM      30.22R
SALMON         CLEAR     27  24  89 SE3       30.10S
CHALLIS        CLEAR     33  23  66 CALM      30.15R
$$

IDZ002-004-006-007-026-181400-
NORTHERN IDAHO


CITY           SKY/WX    TMP DP  RH WIND       PRES   REMARKS
LEWISTON       CLOUDY    50  40  68 CALM      30.04S
LOWELL           N/A     41  41 100 CALM      30.10S
COEUR D`ALENE  CLOUDY    42  32  67 CALM      30.03S
MULLAN PASS    MOCLDY    33  22  63 SW9G17    30.01F WCI  25
$$




USA.gov is the U.S. government's official web portal to all federal, state and local government web resources and services.